Delta, CO

8:53 PM MDT on October 18, 2017 (GMT -0600)
Delta

Weather History for KAJZ - November, 2012

Change the Weather History Date:

Friday, November 9, 2012

  Actual Average (KMTJ) Record (KMTJ)
Temperature  
Mean Temperature 58 °F -  
Max Temperature 67 °F 49 °F 66 °F (2006)
Min Temperature 50 °F 26 °F 16 °F (1998)
Degree Days  
Heating Degree Days 6    
Growing Degree Days 8 (Base 50)    
Moisture  
Dew Point 37 °F    
Average Humidity 49    
Maximum Humidity 75    
Minimum Humidity 27    
Precipitation  
Precipitation 0.00 in - - ()
Sea Level Pressure  
Sea Level Pressure 29.74 in    
Wind  
Wind Speed 10 mph ()    
Max Wind Speed 32 mph    
Max Gust Speed 47 mph    
Visibility 9.9 miles    
Events Rain    
Averages and records for this station are not official NWS values.
T = Trace of Precipitation, MM = Missing Value Source: Averaged Metar Reports

Daily Weather History Graph

Daily Weather History Graph

Search for Another Location

Airport or City:

Trip Planner

Search our weather history database for the weather conditions in past years. The results will help you decide how hot, cold, wet, or windy it might be!

Date:

Astronomy

Nov. 09, 2012 Rise Set
Actual Time 6:48 AM MST 5:03 PM MST
Civil Twilight 6:20 AM MST 5:31 PM MST
Nautical Twilight 5:48 AM MST 6:03 PM MST
Astronomical Twilight 5:17 AM MST 6:34 PM MST
Moon 1:53 AM MST (11/9) 2:15 PM MST (11/9)
Length of Visible Light 11h 10m
Length of Day
10h 14m
Waning Crescent, 22% of the Moon is Illuminated
Nov 9
Waning Crescent
Nov 13
New
Nov 20
First Quarter
Nov 28
Full
Dec 6
Last Quarter

Hourly Weather History & Observations

Time (MST) Temp. Dew Point Humidity Pressure Visibility Wind Dir Wind Speed Gust Speed Precip Events Conditions
12:15 AM 60.3 °F 27.3 °F 29% 29.85 in 10.0 mi SW 12.7 mph - N/A   Mostly Cloudy
12:35 AM 59.9 °F 28.2 °F 30% 29.85 in 10.0 mi WSW 11.5 mph - N/A   Mostly Cloudy
12:55 AM 59.7 °F 28.4 °F 30% 29.85 in 10.0 mi SW 4.6 mph - N/A   Mostly Cloudy
1:15 AM 59.4 °F 29.5 °F 32% 29.85 in 10.0 mi WSW 9.2 mph - N/A   Overcast
1:35 AM 59.2 °F 31.1 °F 35% 29.85 in 10.0 mi SSW 15.0 mph 21.9 mph N/A   Overcast
1:55 AM 59.0 °F 35.8 °F 42% 29.85 in 10.0 mi SSW 13.8 mph 20.7 mph N/A   Overcast
2:15 AM 58.5 °F 35.6 °F 42% 29.87 in 10.0 mi South 11.5 mph - N/A   Overcast
2:35 AM 57.9 °F 36.7 °F 45% 29.86 in 10.0 mi SW 6.9 mph - N/A   Overcast
2:55 AM 57.4 °F 37.4 °F 47% 29.85 in 10.0 mi WSW 8.1 mph - N/A   Overcast
3:15 AM 56.5 °F 37.8 °F 50% 29.86 in 10.0 mi WSW 3.5 mph - N/A   Scattered Clouds
3:35 AM 55.0 °F 37.6 °F 52% 29.86 in 10.0 mi Calm Calm - N/A   Mostly Cloudy
3:55 AM 56.3 °F 37.4 °F 49% 29.85 in 10.0 mi Calm Calm - N/A   Overcast
4:15 AM 56.3 °F 37.9 °F 50% 29.86 in 10.0 mi Calm Calm - N/A   Overcast
4:55 AM 51.8 °F 38.5 °F 60% 29.87 in 10.0 mi ENE 10.4 mph 19.6 mph N/A   Overcast
5:15 AM 51.4 °F 38.3 °F 61% 29.87 in 10.0 mi NE 10.4 mph - N/A   Overcast
5:35 AM 50.9 °F 39.0 °F 64% 29.88 in 10.0 mi NE 10.4 mph - N/A   Overcast
5:55 AM 50.0 °F 39.2 °F 66% 29.87 in 10.0 mi NE 13.8 mph - N/A   Overcast
6:35 AM 51.8 °F 39.2 °F 62% 29.86 in 10.0 mi NNE 16.1 mph - N/A   Overcast
6:55 AM 52.0 °F 39.4 °F 62% 29.86 in 10.0 mi NNE 13.8 mph - N/A   Overcast
7:15 AM 52.5 °F 39.2 °F 61% 29.86 in 10.0 mi NNE 11.5 mph - N/A   Overcast
7:35 AM 52.9 °F 39.4 °F 60% 29.87 in 10.0 mi NNE 9.2 mph - N/A   Overcast
7:55 AM 53.2 °F 39.4 °F 59% 29.86 in 10.0 mi NNE 10.4 mph - N/A   Overcast
8:15 AM 53.4 °F 39.4 °F 59% 29.86 in 10.0 mi North 11.5 mph - N/A   Overcast
8:35 AM 54.1 °F 38.7 °F 56% 29.85 in 10.0 mi NE 10.4 mph - N/A   Overcast
8:55 AM 52.9 °F 43.5 °F 71% 29.86 in 5.0 mi NE 8.1 mph - N/A Rain Rain
9:15 AM 53.8 °F 43.7 °F 69% 29.84 in 10.0 mi NNE 10.4 mph - N/A   Mostly Cloudy
9:55 AM 57.6 °F 43.2 °F 59% 29.84 in 10.0 mi NNE 11.5 mph - N/A   Overcast
10:15 AM 56.1 °F 41.9 °F 59% 29.84 in 10.0 mi NNE 6.9 mph - N/A Rain Rain
10:35 AM 54.1 °F 46.2 °F 75% 29.82 in 10.0 mi NNE 11.5 mph - N/A   Overcast
10:55 AM 54.5 °F 43.9 °F 67% 29.81 in 10.0 mi NNE 12.7 mph - N/A   Overcast
11:15 AM 54.7 °F 44.1 °F 67% 29.79 in 10.0 mi NNE 12.7 mph 18.4 mph N/A   Overcast
11:35 AM 55.0 °F 43.0 °F 64% 29.78 in 10.0 mi NNE 13.8 mph 20.7 mph N/A   Overcast
11:55 AM 54.7 °F 43.2 °F 65% 29.77 in 10.0 mi NNE 13.8 mph - N/A Rain Light Rain
12:15 PM 57.6 °F 43.2 °F 59% 29.75 in 10.0 mi North 9.2 mph - N/A   Overcast
12:35 PM 58.1 °F 43.0 °F 57% 29.73 in 10.0 mi NNE 8.1 mph - N/A   Overcast
12:55 PM 58.1 °F 41.7 °F 54% 29.71 in 10.0 mi NNE 6.9 mph - N/A   Overcast
1:15 PM 57.6 °F 41.5 °F 55% 29.70 in 10.0 mi NNE 5.8 mph - N/A   Overcast
1:35 PM 59.0 °F 41.2 °F 52% 29.68 in 10.0 mi NNE 9.2 mph - N/A   Mostly Cloudy
1:55 PM 59.9 °F 40.1 °F 48% 29.67 in 10.0 mi NNE 4.6 mph - N/A   Overcast
2:15 PM 65.3 °F 34.3 °F 32% 29.66 in 10.0 mi South 21.9 mph 27.6 mph N/A   Overcast
2:35 PM 66.2 °F 32.9 °F 29% 29.64 in 10.0 mi South 11.5 mph 27.6 mph N/A   Mostly Cloudy
2:55 PM 67.1 °F 32.0 °F 27% 29.63 in 10.0 mi South 19.6 mph 28.8 mph N/A   Scattered Clouds
3:15 PM 65.1 °F 31.6 °F 29% 29.62 in 10.0 mi SSW 27.6 mph 33.4 mph N/A   Clear
3:35 PM 63.5 °F 32.0 °F 31% 29.61 in 10.0 mi SSW 21.9 mph 40.3 mph N/A   Clear
3:55 PM 62.4 °F 32.2 °F 32% 29.62 in 10.0 mi South 13.8 mph 25.3 mph N/A   Clear
4:15 PM 60.8 °F 33.8 °F 36% 29.63 in 10.0 mi South 13.8 mph 23.0 mph N/A   Clear
4:35 PM 60.1 °F 34.7 °F 39% 29.63 in 10.0 mi South 8.1 mph 16.1 mph N/A   Clear
4:55 PM 59.4 °F 35.2 °F 40% 29.62 in 10.0 mi SSW 13.8 mph 23.0 mph N/A   Clear
5:15 PM 58.5 °F 35.6 °F 42% 29.61 in 10.0 mi SSW 4.6 mph - N/A   Mostly Cloudy
5:35 PM 58.5 °F 35.1 °F 42% 29.62 in 10.0 mi SSW 5.8 mph - N/A   Overcast
5:55 PM 58.8 °F 34.2 °F 40% 29.63 in 10.0 mi South 10.4 mph 20.7 mph N/A   Overcast
6:15 PM 58.5 °F 34.5 °F 41% 29.63 in 10.0 mi South 9.2 mph - N/A   Overcast
6:35 PM 58.5 °F 34.3 °F 40% 29.64 in 10.0 mi South 12.7 mph 24.2 mph N/A   Overcast
6:55 PM 57.7 °F 35.2 °F 43% 29.64 in 10.0 mi South 10.4 mph 18.4 mph N/A   Overcast
7:15 PM 56.8 °F 34.9 °F 44% 29.65 in 10.0 mi South 13.8 mph 24.2 mph N/A   Overcast
7:35 PM 53.2 °F 36.1 °F 52% 29.65 in 10.0 mi SE 8.1 mph - N/A   Overcast
7:55 PM 53.2 °F 36.1 °F 52% 29.64 in 10.0 mi ESE 8.1 mph - N/A   Overcast
8:15 PM 53.6 °F 36.1 °F 52% 29.65 in 10.0 mi SW 9.2 mph - N/A   Overcast
8:35 PM 57.2 °F 30.0 °F 36% 29.65 in 10.0 mi SSW 17.3 mph 21.9 mph N/A   Overcast
8:55 PM 57.6 °F 28.2 °F 33% 29.65 in 10.0 mi SSW 19.6 mph 27.6 mph N/A   Mostly Cloudy
9:15 PM 57.2 °F 27.5 °F 32% 29.66 in 10.0 mi South 18.4 mph 32.2 mph N/A   Scattered Clouds
9:35 PM 55.9 °F 28.4 °F 35% 29.65 in 10.0 mi SSW 16.1 mph 19.6 mph N/A   Clear
9:55 PM 55.8 °F 29.7 °F 37% 29.66 in 10.0 mi SSW 21.9 mph 32.2 mph N/A   Scattered Clouds
10:15 PM 54.1 °F 32.0 °F 43% 29.64 in 10.0 mi SSW 16.1 mph 28.8 mph N/A   Scattered Clouds
10:35 PM 55.2 °F 31.6 °F 41% 29.64 in 10.0 mi SW 32.2 mph 47.2 mph N/A   Scattered Clouds
10:55 PM 52.7 °F 35.1 °F 51% 29.64 in 10.0 mi SW 27.6 mph 35.7 mph N/A   Scattered Clouds
11:15 PM 51.3 °F 36.9 °F 58% 29.64 in 10.0 mi SW 19.6 mph 32.2 mph N/A   Mostly Cloudy
11:35 PM 50.4 °F 37.6 °F 62% 29.63 in 10.0 mi WSW 12.7 mph 24.2 mph N/A   Overcast
11:55 PM 50.2 °F 37.6 °F 62% 29.61 in 10.0 mi SW 10.4 mph 16.1 mph N/A   Overcast